Location: Düngen
(52.0952°N, 10.0219°E)
Time: 15:55:28
(UTC+00:00)

Meteor 1-14 Rocket - Pass Details

Date: 11 March 2026
Orbit: 833 x 917 km, 81.3° (Epoch: 14 April)

Event Time Altitude Azimuth Distance (km) Brightness Sun altitude
Exits shadow 19:49:51 55° 119° (ESE) 1,055 4.3 -23.5°
Maximum altitude 19:50:23 57° 96° (E) 1,032 4.3 -23.6°
Drops below altitude 10° 19:56:07 10° 19° (NNE) 2,579 6.8 -24.4°
Sets 19:58:39 0° 16° (NNE) 3,535 7.6 -24.7°
